CDT,Max TemperatureF,Mean TemperatureF,Min TemperatureF,Max Dew PointF,MeanDew PointF,Min DewpointF,Max Humidity, Mean Humidity, Min Humidity, Max Sea Level PressureIn, Mean Sea Level PressureIn, Min Sea Level PressureIn, Max VisibilityMiles, Mean VisibilityMiles, Min VisibilityMiles, Max Wind SpeedMPH, Mean Wind SpeedMPH, Max Gust SpeedMPH,PrecipitationIn, CloudCover, Events, WindDirDegrees
2013-3-1,29,27,25,25,21,19,86,81,74,30.22,30.15,30.06,10,7,2,20,13,25,T,8,Snow,344
2013-3-2,31,24,16,19,16,11,86,71,54,30.23,30.20,30.16,10,10,7,17,10,22,T,6,Snow,330
2013-3-3,32,22,11,15,11,8,84,64,37,30.19,30.15,30.12,10,10,10,12,4,14,0.00,0,,335
2013-3-4,33,24,15,25,20,13,88,74,64,30.16,30.11,30.04,10,10,8,13,5,16,0.00,5,,87
2013-3-5,32,31,29,29,28,26,96,89,79,30.01,29.92,29.85,10,3,0,18,10,25,0.03,8,Fog-Snow,58
2013-3-6,34,31,27,27,25,23,93,81,75,30.33,30.22,29.99,10,9,3,20,11,25,T,8,Snow,326
2013-3-7,39,32,25,25,23,21,89,72,50,30.46,30.41,30.33,10,10,8,9,4,12,0.00,6,,345
2013-3-8,41,31,20,26,24,20,96,74,49,30.52,30.45,30.34,10,9,5,13,4,15,0.00,1,,144
2013-3-9,43,36,29,33,28,23,85,71,60,30.32,30.10,29.86,10,9,4,21,9,25,0.04,5,Rain,162
2013-3-10,50,45,40,47,42,32,100,95,63,29.86,29.74,29.63,10,3,0,18,8,25,0.49,8,Fog-Rain,151
2013-3-11,48,40,32,46,38,29,100,95,85,29.80,29.63,29.56,10,5,0,16,8,21,0.07,8,Fog-Rain,244
2013-3-12,36,30,24,29,25,21,93,82,64,30.03,29.91,29.79,10,5,0,22,11,30,0.04,8,Fog-Snow,272
2013-3-13,32,26,20,20,14,8,84,60,41,30.35,30.23,30.03,10,10,9,24,11,29,0.00,1,,300
2013-3-14,37,30,22,29,20,14,88,69,46,30.35,30.26,30.12,10,9,6,12,5,16,0.00,3,,227
2013-3-15,42,36,29,36,32,27,100,90,70,30.09,29.91,29.79,10,4,2,12,5,17,0.11,6,Rain,70
2013-3-16,34,32,29,33,27,20,100,86,69,30.16,29.95,29.77,10,7,2,17,8,24,T,8,Snow,3
2013-3-17,33,29,24,23,19,15,72,66,60,30.25,30.17,30.04,10,10,10,16,10,22,0.00,4,,37
2013-3-18,34,28,21,31,26,13,93,84,64,30.03,29.75,29.61,10,6,2,28,12,37,0.07,7,Snow,160
2013-3-19,32,24,16,13,11,8,71,59,43,30.09,29.94,29.78,10,10,6,26,17,36,T,4,Snow,271
2013-3-20,24,19,14,14,7,2,86,60,46,30.12,30.09,30.06,10,9,1,21,12,26,T,3,Snow,300
2013-3-21,33,23,13,14,9,4,68,57,43,30.08,30.06,30.04,10,10,10,16,8,20,0.00,0,,314
2013-3-22,40,29,17,20,15,11,78,59,36,30.12,30.08,30.03,10,10,10,12,4,18,0.00,0,,332
2013-3-23,39,31,23,26,21,18,84,66,46,30.16,30.11,30.06,10,10,7,13,5,17,0.00,2,,43
2013-3-24,37,35,32,29,26,23,82,73,62,30.06,29.84,29.70,10,10,4,25,14,37,T,8,Snow,37
2013-3-25,38,35,32,28,25,22,79,70,61,30.10,29.88,29.74,10,10,3,24,12,32,T,8,Snow,360
2013-3-26,43,36,29,26,24,21,79,64,43,30.27,30.20,30.11,10,10,10,16,6,23,0.00,6,,325
2013-3-27,42,35,27,24,21,19,72,54,40,30.35,30.32,30.28,10,10,10,12,6,15,0.00,7,,317
2013-3-28,50,37,23,23,20,18,85,53,31,30.37,30.34,30.31,10,10,10,12,3,16,0.00,0,,15
2013-3-29,54,42,30,27,24,19,82,56,29,30.35,30.31,30.26,10,10,9,13,3,17,0.00,2,,13
2013-3-30,60,44,27,39,30,23,89,59,35,30.27,30.08,29.86,10,8,4,21,9,26,0.00,3,,194
2013-3-31,58,47,35,43,36,23,87,68,33,29.91,29.79,29.71,10,8,3,26,13,33,T,5,,277